• In Latvia
  • List of Countries
  • For 7 days
  • Water Temperature
  • Satellite Maps
  • Weather Map
  • Weather Widgets
  • user-avatar
    Login

    Hourly Weather Chistyakovе (Torez)

    Today, 16 July, Monday

    Time Temperature Precipitation Wind Pressure Humidity
    00:00 +23°C° 0 mm 1 mps 734 mmHg 67%
    01:00 +23°C° 0 mm 1 mps 734 mmHg 68%
    02:00 +23°C° 0 mm 1 mps 734 mmHg 69%
    03:00 +22°C° 0 mm 1 mps 734 mmHg 70%
    04:00 +22°C° 0.1 mm 1 mps 734 mmHg 71%
    05:00 +22°C° 0.1 mm 1 mps 734 mmHg 73%
    06:00 +22°C° 0.1 mm 1 mps 734 mmHg 74%
    07:00 +23°C° 0.2 mm 1 mps 734 mmHg 72%
    08:00 +23°C° 0.2 mm 1 mps 734 mmHg 70%
    09:00 +24°C° 0.2 mm 1 mps 734 mmHg 68%
    10:00 +25°C° 0.1 mm 1 mps 734 mmHg 64%
    11:00 +26°C° 0.1 mm 2 mps 734 mmHg 60%
    12:00 +26°C° 0.1 mm 2 mps 734 mmHg 56%
    13:00 +27°C° 0 mm 2 mps 734 mmHg 54%
    14:00 +27°C° 0 mm 3 mps 734 mmHg 52%
    15:00 +28°C° 0 mm 3 mps 734 mmHg 50%
    16:00 +28°C° 0.2 mm 3 mps 734 mmHg 51%
    17:00 +27°C° 0.2 mm 3 mps 734 mmHg 53%
    18:00 +27°C° 0.2 mm 3 mps 734 mmHg 54%
    19:00 +26°C° 0.6 mm 2 mps 734 mmHg 60%
    20:00 +24°C° 0.6 mm 2 mps 734 mmHg 66%
    21:00 +23°C° 0.6 mm 1 mps 734 mmHg 72%
    22:00 +21°C° 0.2 mm 2 mps 734 mmHg 74%
    23:00 +21°C° 0.2 mm 2 mps 733 mmHg 76%

    Tomorrow, 17 July, Tuesday

    Time Temperature Precipitation Wind Pressure Humidity
    00:00 +20°C° 0.2 mm 2 mps 733 mmHg 78%
    01:00 +20°C° 0.1 mm 2 mps 733 mmHg 80%
    02:00 +20°C° 0.1 mm 2 mps 733 mmHg 81%
    03:00 +19°C° 0.1 mm 3 mps 733 mmHg 82%
    04:00 +19°C° 0 mm 3 mps 733 mmHg 82%
    05:00 +19°C° 0 mm 3 mps 733 mmHg 81%
    06:00 +20°C° 0 mm 3 mps 733 mmHg 81%
    07:00 +21°C° 0 mm 3 mps 733 mmHg 73%
    08:00 +23°C° 0 mm 4 mps 733 mmHg 66%
    09:00 +26°C° 0 mm 5 mps 733 mmHg 59%
    10:00 +27°C° 0 mm 5 mps 733 mmHg 54%
    11:00 +28°C° 0 mm 6 mps 733 mmHg 49%
    12:00 +29°C° 0 mm 7 mps 733 mmHg 44%
    13:00 +29°C° 0 mm 7 mps 733 mmHg 43%
    14:00 +29°C° 0 mm 7 mps 733 mmHg 42%
    15:00 +29°C° 0 mm 7 mps 733 mmHg 41%
    16:00 +29°C° 0 mm 7 mps 733 mmHg 44%
    17:00 +28°C° 0 mm 6 mps 733 mmHg 47%
    18:00 +27°C° 0 mm 6 mps 733 mmHg 49%
    19:00 +26°C° 0.3 mm 5 mps 733 mmHg 55%
    20:00 +25°C° 0.3 mm 5 mps 733 mmHg 61%
    21:00 +22°C° 0.3 mm 4 mps 733 mmHg 67%
    22:00 +22°C° 0.4 mm 4 mps 733 mmHg 71%
    23:00 +21°C° 0.4 mm 4 mps 733 mmHg 74%

    Day after tomorrow, 18 July, Wednesday

    Time Temperature Precipitation Wind Pressure Humidity
    00:00 +20°C° 0.4 mm 3 mps 733 mmHg 78%
    01:00 +20°C° 0.1 mm 3 mps 733 mmHg 79%
    02:00 +20°C° 0.1 mm 3 mps 733 mmHg 81%
    03:00 +20°C° 0.1 mm 3 mps 733 mmHg 82%
    04:00 +20°C° 0 mm 3 mps 733 mmHg 82%
    05:00 +20°C° 0 mm 3 mps 733 mmHg 82%
    06:00 +20°C° 0 mm 4 mps 733 mmHg 82%
    07:00 +22°C° 0.1 mm 4 mps 733 mmHg 74%
    08:00 +23°C° 0.1 mm 5 mps 733 mmHg 67%
    09:00 +26°C° 0.1 mm 6 mps 734 mmHg 59%
    10:00 +27°C° 0.3 mm 6 mps 734 mmHg 57%
    11:00 +27°C° 0.3 mm 6 mps 734 mmHg 55%
    12:00 +28°C° 0.3 mm 7 mps 734 mmHg 52%
    13:00 +28°C° 0.7 mm 7 mps 734 mmHg 52%
    14:00 +28°C° 0.7 mm 7 mps 734 mmHg 52%
    15:00 +28°C° 0.7 mm 7 mps 734 mmHg 52%
    16:00 +27°C° 0.2 mm 6 mps 734 mmHg 56%
    17:00 +26°C° 0.2 mm 5 mps 734 mmHg 59%
    18:00 +25°C° 0.2 mm 4 mps 734 mmHg 63%
    19:00 +25°C° 0.3 mm 4 mps 734 mmHg 66%
    20:00 +23°C° 0.3 mm 4 mps 734 mmHg 70%
    21:00 +22°C° 0.3 mm 4 mps 734 mmHg 73%
    22:00 +22°C° 0.3 mm 4 mps 734 mmHg 75%
    23:00 +21°C° 0.3 mm 4 mps 734 mmHg 77%

    19 July, Thursday

    Time Temperature Precipitation Wind Pressure Humidity
    00:00 +21°C° 0.3 mm 4 mps 733 mmHg 78%
    01:00 +21°C° 0.2 mm 4 mps 733 mmHg 79%
    02:00 +21°C° 0.2 mm 4 mps 733 mmHg 80%
    03:00 +21°C° 0.2 mm 4 mps 733 mmHg 81%
    04:00 +21°C° 0 mm 4 mps 733 mmHg 82%
    05:00 +21°C° 0 mm 4 mps 733 mmHg 83%
    06:00 +21°C° 0 mm 5 mps 733 mmHg 84%
    07:00 +23°C° 0.1 mm 5 mps 734 mmHg 78%
    08:00 +24°C° 0.1 mm 6 mps 734 mmHg 71%
    09:00 +27°C° 0.1 mm 6 mps 734 mmHg 65%
    10:00 +28°C° 0.2 mm 7 mps 734 mmHg 60%
    11:00 +29°C° 0.2 mm 7 mps 734 mmHg 56%
    12:00 +31°C° 0.2 mm 8 mps 735 mmHg 52%
    13:00 +30°C° 0.3 mm 7 mps 735 mmHg 51%
    14:00 +30°C° 0.3 mm 7 mps 735 mmHg 51%
    15:00 +30°C° 0.3 mm 7 mps 735 mmHg 51%
    16:00 +29°C° 0.2 mm 6 mps 735 mmHg 51%
    17:00 +29°C° 0.2 mm 6 mps 735 mmHg 52%
    18:00 +29°C° 0.2 mm 5 mps 735 mmHg 52%
    19:00 +27°C° 0 mm 4 mps 735 mmHg 57%
    20:00 +26°C° 0 mm 3 mps 735 mmHg 62%
    21:00 +24°C° 0 mm 2 mps 735 mmHg 67%
    22:00 +24°C° 0 mm 2 mps 735 mmHg 70%
    23:00 +23°C° 0 mm 2 mps 735 mmHg 73%

    20 July, Friday

    Time Temperature Precipitation Wind Pressure Humidity
    00:00 +23°C° 0 mm 2 mps 735 mmHg 75%
    01:00 +21°C° 0 mm 2 mps 735 mmHg 78%
    02:00 +21°C° 0 mm 2 mps 735 mmHg 81%
    03:00 +21°C° 0 mm 2 mps 735 mmHg 84%
    04:00 +21°C° 0 mm 2 mps 735 mmHg 84%
    05:00 +21°C° 0 mm 2 mps 735 mmHg 84%
    06:00 +21°C° 0 mm 2 mps 735 mmHg 84%
    07:00 +24°C° 1.2 mm 3 mps 735 mmHg 78%
    08:00 +25°C° 1.2 mm 3 mps 735 mmHg 72%
    09:00 +27°C° 1.2 mm 4 mps 736 mmHg 66%
    10:00 +28°C° 0.5 mm 4 mps 736 mmHg 61%
    11:00 +29°C° 0.5 mm 4 mps 736 mmHg 57%
    12:00 +30°C° 0.5 mm 4 mps 736 mmHg 52%
    13:00 +30°C° 0.4 mm 4 mps 736 mmHg 52%
    14:00 +30°C° 0.4 mm 4 mps 735 mmHg 52%
    15:00 +30°C° 0.4 mm 4 mps 735 mmHg 52%
    16:00 +30°C° 0.3 mm 4 mps 735 mmHg 53%
    17:00 +29°C° 0.3 mm 3 mps 735 mmHg 55%
    18:00 +29°C° 0.3 mm 3 mps 736 mmHg 56%
    19:00 +28°C° 0.2 mm 3 mps 736 mmHg 61%
    20:00 +26°C° 0.2 mm 3 mps 736 mmHg 66%
    21:00 +25°C° 0.2 mm 2 mps 736 mmHg 70%
    22:00 +24°C° 0.2 mm 2 mps 736 mmHg 73%
    23:00 +24°C° 0.2 mm 2 mps 736 mmHg 76%

    21 July, Saturday

    Time Temperature Precipitation Wind Pressure Humidity
    00:00 +23°C° 0.2 mm 2 mps 736 mmHg 79%
    01:00 +23°C° 0 mm 2 mps 735 mmHg 81%
    02:00 +21°C° 0 mm 2 mps 735 mmHg 83%
    03:00 +21°C° 0 mm 2 mps 735 mmHg 85%
    04:00 +22°C° 0 mm 1 mps 735 mmHg 85%
    05:00 +22°C° 0 mm 1 mps 735 mmHg 85%
    06:00 +23°C° 0 mm 1 mps 736 mmHg 85%
    07:00 +24°C° 0 mm 1 mps 736 mmHg 78%
    08:00 +26°C° 0 mm 2 mps 736 mmHg 72%
    09:00 +27°C° 0 mm 2 mps 736 mmHg 65%
    10:00 +28°C° 0.1 mm 2 mps 736 mmHg 61%
    11:00 +29°C° 0.1 mm 3 mps 736 mmHg 56%
    12:00 +30°C° 0.1 mm 3 mps 736 mmHg 51%
    13:00 +31°C° 0 mm 3 mps 736 mmHg 50%
    14:00 +31°C° 0 mm 3 mps 736 mmHg 49%
    15:00 +32°C° 0 mm 4 mps 736 mmHg 48%
    16:00 +31°C° 0.1 mm 3 mps 736 mmHg 49%
    17:00 +31°C° 0.1 mm 3 mps 736 mmHg 51%
    18:00 +30°C° 0.1 mm 3 mps 736 mmHg 53%
    19:00 +29°C° 0.5 mm 3 mps 736 mmHg 59%
    20:00 +27°C° 0.5 mm 3 mps 736 mmHg 65%
    21:00 +26°C° 0.5 mm 2 mps 736 mmHg 71%
    22:00 +25°C° 0 mm 2 mps 736 mmHg 74%
    23:00 +25°C° 0 mm 2 mps 735 mmHg 77%
    Show more